Time,TemperatureF,DewpointF,PressureIn,WindDirection,WindDirectionDegrees,WindSpeedMPH,WindSpeedGustMPH,Humidity,HourlyPrecipIn,Conditions,Clouds,dailyrainin,SoftwareType,DateUTC
2013-03-16 00:04:00,69.9,37.9,29.73,SW,219,14.0,15.0,31,0.00,,,0.00,Wunderground v.1.15,2013-03-16 07:04:00,
2013-03-16 00:10:00,69.8,36.9,29.73,SSW,192,13.0,13.0,30,0.00,,,0.00,Wunderground v.1.15,2013-03-16 07:10:00,
2013-03-16 00:16:00,69.9,37.0,29.74,SW,223,12.0,15.0,30,0.00,,,0.00,Wunderground v.1.15,2013-03-16 07:16:00,
2013-03-16 00:22:00,69.9,37.9,29.73,SW,217,11.0,12.0,31,0.00,,,0.00,Wunderground v.1.15,2013-03-16 07:22:00,
2013-03-16 00:28:00,69.7,37.7,29.73,SSW,200,11.0,16.0,31,0.00,,,0.00,Wunderground v.1.15,2013-03-16 07:28:00,
2013-03-16 00:34:00,69.3,38.2,29.74,SW,219,11.0,13.0,32,0.00,,,0.00,Wunderground v.1.15,2013-03-16 07:34:00,
2013-03-16 00:40:00,69.2,36.4,29.74,SW,222,11.0,11.0,30,0.00,,,0.00,Wunderground v.1.15,2013-03-16 07:40:00,
2013-03-16 00:46:00,69.4,37.4,29.74,SW,231,12.0,14.0,31,0.00,,,0.00,Wunderground v.1.15,2013-03-16 07:46:00,
2013-03-16 00:52:00,69.4,37.4,29.74,SW,229,11.0,11.0,31,0.00,,,0.00,Wunderground v.1.15,2013-03-16 07:52:00,
2013-03-16 00:58:00,69.4,36.6,29.74,SW,215,10.0,11.0,30,0.00,,,0.00,Wunderground v.1.15,2013-03-16 07:58:00,
2013-03-16 01:04:00,69.4,36.6,29.74,SSW,207,9.0,10.0,30,0.00,,,0.00,Wunderground v.1.15,2013-03-16 08:04:00,
2013-03-16 01:10:00,69.1,37.2,29.75,SSW,205,9.0,9.0,31,0.00,,,0.00,Wunderground v.1.15,2013-03-16 08:10:00,
2013-03-16 01:16:00,68.9,37.0,29.75,SSW,213,11.0,14.0,31,0.00,,,0.00,Wunderground v.1.15,2013-03-16 08:16:00,
2013-03-16 01:22:00,68.7,37.6,29.74,SSW,210,12.0,15.0,32,0.00,,,0.00,Wunderground v.1.15,2013-03-16 08:22:00,
2013-03-16 01:28:00,68.5,37.5,29.75,SSW,213,11.0,15.0,32,0.00,,,0.00,Wunderground v.1.15,2013-03-16 08:28:00,
2013-03-16 01:34:00,68.4,37.4,29.74,SSW,204,11.0,14.0,32,0.00,,,0.00,Wunderground v.1.15,2013-03-16 08:34:00,
2013-03-16 01:40:00,68.3,36.5,29.75,SSW,201,11.0,14.0,31,0.00,,,0.00,Wunderground v.1.15,2013-03-16 08:40:00,
2013-03-16 01:48:00,68.4,36.6,29.75,SW,222,11.0,15.0,31,0.00,,,0.00,Wunderground v.1.15,2013-03-16 08:48:00,
2013-03-16 01:54:00,68.5,36.7,29.74,SW,220,10.0,13.0,31,0.00,,,0.00,Wunderground v.1.15,2013-03-16 08:54:00,
2013-03-16 02:00:00,68.7,36.0,29.74,SSW,212,11.0,11.0,30,0.00,,,0.00,Wunderground v.1.15,2013-03-16 09:00:00,
2013-03-16 02:06:00,68.7,36.8,29.75,SSW,200,11.0,11.0,31,0.00,,,0.00,Wunderground v.1.15,2013-03-16 09:06:00,
2013-03-16 02:12:00,68.6,36.7,29.75,SW,216,10.0,10.0,31,0.00,,,0.00,Wunderground v.1.15,2013-03-16 09:12:00,
2013-03-16 02:18:00,68.6,36.7,29.75,SSW,207,11.0,13.0,31,0.00,,,0.00,Wunderground v.1.15,2013-03-16 09:18:00,
2013-03-16 02:24:00,68.4,36.6,29.75,SW,215,11.0,14.0,31,0.00,,,0.00,Wunderground v.1.15,2013-03-16 09:24:00,
2013-03-16 02:30:00,68.2,36.4,29.75,SW,215,10.0,10.0,31,0.00,,,0.00,Wunderground v.1.15,2013-03-16 09:30:00,
2013-03-16 02:38:00,68.1,37.1,29.75,SW,225,12.0,15.0,32,0.00,,,0.00,Wunderground v.1.15,2013-03-16 09:38:00,
2013-03-16 02:44:00,68.0,37.8,29.75,SW,227,12.0,17.0,33,0.00,,,0.00,Wunderground v.1.15,2013-03-16 09:44:00,
2013-03-16 02:50:00,67.9,37.7,29.75,WSW,237,14.0,14.0,33,0.00,,,0.00,Wunderground v.1.15,2013-03-16 09:50:00,
2013-03-16 02:58:00,68.0,37.0,29.75,WSW,241,12.0,14.0,32,0.00,,,0.00,Wunderground v.1.15,2013-03-16 09:58:00,
2013-03-16 03:04:00,68.1,36.3,29.75,SW,229,11.0,16.0,31,0.00,,,0.00,Wunderground v.1.15,2013-03-16 10:04:00,
2013-03-16 03:10:00,68.3,36.5,29.75,South,186,13.0,16.0,31,0.00,,,0.00,Wunderground v.1.15,2013-03-16 10:10:00,
2013-03-16 03:16:00,68.4,37.4,29.75,SW,218,13.0,18.0,32,0.00,,,0.00,Wunderground v.1.15,2013-03-16 10:16:00,
2013-03-16 03:22:00,68.5,36.7,29.74,SW,227,15.0,15.0,31,0.00,,,0.00,Wunderground v.1.15,2013-03-16 10:22:00,
2013-03-16 03:28:00,68.6,36.7,29.75,SW,217,15.0,17.0,31,0.00,,,0.00,Wunderground v.1.15,2013-03-16 10:28:00,
2013-03-16 03:34:00,68.7,36.0,29.75,SW,215,13.0,15.0,30,0.00,,,0.00,Wunderground v.1.15,2013-03-16 10:34:00,
2013-03-16 03:40:00,68.7,35.1,29.75,SW,232,12.0,12.0,29,0.00,,,0.00,Wunderground v.1.15,2013-03-16 10:40:00,
2013-03-16 03:46:00,68.5,35.8,29.75,SSW,212,13.0,15.0,30,0.00,,,0.00,Wunderground v.1.15,2013-03-16 10:46:00,
2013-03-16 03:52:00,68.1,37.1,29.75,SW,230,15.0,15.0,32,0.00,,,0.00,Wunderground v.1.15,2013-03-16 10:52:00,
2013-03-16 03:58:00,67.7,37.5,29.74,SW,234,16.0,17.0,33,0.00,,,0.00,Wunderground v.1.15,2013-03-16 10:58:00,
2013-03-16 04:04:00,67.4,37.3,29.74,SW,219,16.0,23.0,33,0.00,,,0.00,Wunderground v.1.15,2013-03-16 11:04:00,
2013-03-16 04:10:00,67.2,37.1,29.74,SW,225,17.0,20.0,33,0.00,,,0.00,Wunderground v.1.15,2013-03-16 11:10:00,
2013-03-16 04:16:00,67.0,37.7,29.74,WSW,241,17.0,22.0,34,0.00,,,0.00,Wunderground v.1.15,2013-03-16 11:16:00,
2013-03-16 04:22:00,66.4,38.6,29.74,SW,226,19.0,22.0,36,0.00,,,0.00,Wunderground v.1.15,2013-03-16 11:22:00,
2013-03-16 04:28:00,66.0,38.3,29.74,SW,223,19.0,22.0,36,0.00,,,0.00,Wunderground v.1.15,2013-03-16 11:28:00,
2013-03-16 04:34:00,65.8,38.8,29.74,WSW,251,19.0,19.0,37,0.00,,,0.00,Wunderground v.1.15,2013-03-16 11:34:00,
2013-03-16 04:40:00,65.7,38.7,29.74,SW,226,18.0,18.0,37,0.00,,,0.00,Wunderground v.1.15,2013-03-16 11:40:00,
2013-03-16 04:48:00,65.7,38.0,29.74,SW,227,17.0,20.0,36,0.00,,,0.00,Wunderground v.1.15,2013-03-16 11:48:00,
2013-03-16 04:54:00,65.7,38.0,29.74,WSW,237,16.0,17.0,36,0.00,,,0.00,Wunderground v.1.15,2013-03-16 11:54:00,
2013-03-16 05:00:00,65.4,39.1,29.74,SW,236,17.0,21.0,38,0.00,,,0.00,Wunderground v.1.15,2013-03-16 12:00:00,
2013-03-16 05:06:00,65.2,37.6,29.74,SW,230,16.0,21.0,36,0.00,,,0.00,Wunderground v.1.15,2013-03-16 12:06:00,
2013-03-16 05:12:00,65.2,37.6,29.74,WSW,257,14.0,17.0,36,0.00,,,0.00,Wunderground v.1.15,2013-03-16 12:12:00,
2013-03-16 05:18:00,65.2,37.6,29.74,WSW,240,14.0,17.0,36,0.00,,,0.00,Wunderground v.1.15,2013-03-16 12:18:00,
2013-03-16 05:24:00,65.4,36.3,29.74,SW,232,13.0,14.0,34,0.00,,,0.00,Wunderground v.1.15,2013-03-16 12:24:00,
2013-03-16 05:30:00,65.4,36.3,29.74,SW,226,12.0,12.0,34,0.00,,,0.00,Wunderground v.1.15,2013-03-16 12:30:00,
2013-03-16 05:38:00,65.3,36.2,29.74,SW,214,11.0,12.0,34,0.00,,,0.00,Wunderground v.1.15,2013-03-16 12:38:00,
2013-03-16 05:44:00,65.1,35.3,29.74,SW,215,11.0,15.0,33,0.00,,,0.00,Wunderground v.1.15,2013-03-16 12:44:00,
2013-03-16 05:50:00,64.9,35.8,29.75,SSW,212,11.0,11.0,34,0.00,,,0.00,Wunderground v.1.15,2013-03-16 12:50:00,
2013-03-16 05:58:00,64.6,35.6,29.76,SW,229,12.0,14.0,34,0.00,,,0.00,Wunderground v.1.15,2013-03-16 12:58:00,
2013-03-16 06:04:00,64.4,35.4,29.76,SW,226,12.0,13.0,34,0.00,,,0.00,Wunderground v.1.15,2013-03-16 13:04:00,
2013-03-16 06:10:00,64.3,35.3,29.76,SW,217,13.0,15.0,34,0.00,,,0.00,Wunderground v.1.15,2013-03-16 13:10:00,
2013-03-16 06:18:00,64.1,35.9,29.77,SSW,200,13.0,16.0,35,0.00,,,0.00,Wunderground v.1.15,2013-03-16 13:18:00,
2013-03-16 06:24:00,63.8,37.0,29.77,SW,221,12.0,14.0,37,0.00,,,0.00,Wunderground v.1.15,2013-03-16 13:24:00,
2013-03-16 06:30:00,63.4,37.3,29.77,SW,220,12.0,13.0,38,0.00,,,0.00,Wunderground v.1.15,2013-03-16 13:30:00,
2013-03-16 06:36:00,63.2,36.5,29.77,SW,217,11.0,13.0,37,0.00,,,0.00,Wunderground v.1.15,2013-03-16 13:36:00,
2013-03-16 06:42:00,62.9,36.9,29.78,SSW,211,12.0,16.0,38,0.00,,,0.00,Wunderground v.1.15,2013-03-16 13:42:00,
2013-03-16 06:48:00,62.7,35.3,29.77,SSW,211,11.0,16.0,36,0.00,,,0.00,Wunderground v.1.15,2013-03-16 13:48:00,
2013-03-16 06:54:00,62.7,35.3,29.77,SSW,211,10.0,11.0,36,0.00,,,0.00,Wunderground v.1.15,2013-03-16 13:54:00,
2013-03-16 07:00:00,62.8,34.7,29.77,SW,216,9.0,9.0,35,0.00,,,0.00,Wunderground v.1.15,2013-03-16 14:00:00,
2013-03-16 07:08:00,63.2,35.8,29.77,SSW,209,9.0,10.0,36,0.00,,,0.00,Wunderground v.1.15,2013-03-16 14:08:00,
2013-03-16 07:14:00,63.2,35.1,29.77,SW,221,11.0,12.0,35,0.00,,,0.00,Wunderground v.1.15,2013-03-16 14:14:00,
2013-03-16 07:20:00,63.3,35.2,29.77,SW,227,11.0,11.0,35,0.00,,,0.00,Wunderground v.1.15,2013-03-16 14:20:00,
2013-03-16 07:26:00,63.3,35.2,29.77,SSW,210,10.0,11.0,35,0.00,,,0.00,Wunderground v.1.15,2013-03-16 14:26:00,
2013-03-16 07:32:00,63.3,35.9,29.78,SW,226,11.0,14.0,36,0.00,,,0.00,Wunderground v.1.15,2013-03-16 14:32:00,
2013-03-16 07:38:00,63.5,35.3,29.78,WSW,246,11.0,14.0,35,0.00,,,0.00,Wunderground v.1.15,2013-03-16 14:38:00,
2013-03-16 07:44:00,63.6,34.7,29.78,WSW,240,11.0,13.0,34,0.00,,,0.00,Wunderground v.1.15,2013-03-16 14:44:00,
2013-03-16 07:50:00,64.0,35.0,29.78,SW,228,9.0,13.0,34,0.00,,,0.00,Wunderground v.1.15,2013-03-16 14:50:00,
2013-03-16 07:56:00,64.5,34.0,29.79,SW,219,10.0,13.0,32,0.00,,,0.00,Wunderground v.1.15,2013-03-16 14:56:00,
2013-03-16 08:02:00,64.9,36.6,29.79,SW,222,10.0,10.0,35,0.00,,,0.00,Wunderground v.1.15,2013-03-16 15:02:00,
2013-03-16 08:08:00,65.2,36.1,29.79,SW,228,11.0,11.0,34,0.00,,,0.00,Wunderground v.1.15,2013-03-16 15:08:00,
2013-03-16 08:14:00,65.5,36.4,29.79,WSW,241,10.0,11.0,34,0.00,,,0.00,Wunderground v.1.15,2013-03-16 15:14:00,
2013-03-16 08:20:00,66.0,34.5,29.79,WSW,242,7.0,7.0,31,0.00,,,0.00,Wunderground v.1.15,2013-03-16 15:20:00,
2013-03-16 08:28:00,66.7,35.9,29.80,SW,223,6.0,11.0,32,0.00,,,0.00,Wunderground v.1.15,2013-03-16 15:28:00,
2013-03-16 08:34:00,67.3,38.0,29.80,WSW,240,7.0,10.0,34,0.00,,,0.00,Wunderground v.1.15,2013-03-16 15:34:00,
2013-03-16 08:40:00,67.8,36.0,29.81,WSW,237,7.0,7.0,31,0.00,,,0.00,Wunderground v.1.15,2013-03-16 15:40:00,
2013-03-16 08:46:00,68.4,34.0,29.81,SW,227,7.0,9.0,28,0.00,,,0.00,Wunderground v.1.15,2013-03-16 15:46:00,
2013-03-16 08:52:00,69.2,32.8,29.81,West,261,5.0,5.0,26,0.00,,,0.00,Wunderground v.1.15,2013-03-16 15:52:00,
2013-03-16 08:58:00,70.1,30.6,29.81,West,276,3.0,5.0,23,0.00,,,0.00,Wunderground v.1.15,2013-03-16 15:58:00,
2013-03-16 09:04:00,70.9,30.1,29.82,West,276,3.0,4.0,22,0.00,,,0.00,Wunderground v.1.15,2013-03-16 16:04:00,
2013-03-16 09:10:00,71.5,29.5,29.82,West,277,4.0,4.0,21,0.00,,,0.00,Wunderground v.1.15,2013-03-16 16:10:00,
2013-03-16 09:16:00,72.2,30.1,29.82,West,260,4.0,6.0,21,0.00,,,0.00,Wunderground v.1.15,2013-03-16 16:16:00,
2013-03-16 09:22:00,72.9,29.4,29.82,West,277,5.0,5.0,20,0.00,,,0.00,Wunderground v.1.15,2013-03-16 16:22:00,
2013-03-16 09:28:00,73.4,29.9,29.82,WNW,284,6.0,6.0,20,0.00,,,0.00,Wunderground v.1.15,2013-03-16 16:28:00,
2013-03-16 09:34:00,73.8,30.2,29.82,West,265,6.0,9.0,20,0.00,,,0.00,Wunderground v.1.15,2013-03-16 16:34:00,
2013-03-16 09:40:00,74.1,30.4,29.82,West,272,4.0,4.0,20,0.00,,,0.00,Wunderground v.1.15,2013-03-16 16:40:00,
2013-03-16 09:46:00,74.6,30.9,29.82,West,272,3.0,4.0,20,0.00,,,0.00,Wunderground v.1.15,2013-03-16 16:46:00,
2013-03-16 09:52:00,75.0,31.2,29.82,West,281,3.0,6.0,20,0.00,,,0.00,Wunderground v.1.15,2013-03-16 16:52:00,
2013-03-16 09:58:00,75.3,30.2,29.82,West,281,3.0,6.0,19,0.00,,,0.00,Wunderground v.1.15,2013-03-16 16:58:00,
2013-03-16 10:04:00,76.1,29.5,29.82,West,281,3.0,6.0,18,0.00,,,0.00,Wunderground v.1.15,2013-03-16 17:04:00,
2013-03-16 10:10:00,76.7,30.0,29.82,West,272,3.0,4.0,18,0.00,,,0.00,Wunderground v.1.15,2013-03-16 17:10:00,
2013-03-16 10:16:00,77.1,28.9,29.82,WNW,290,3.0,6.0,17,0.00,,,0.00,Wunderground v.1.15,2013-03-16 17:16:00,
2013-03-16 10:22:00,77.6,29.3,29.82,WNW,296,3.0,4.0,17,0.00,,,0.00,Wunderground v.1.15,2013-03-16 17:22:00,
2013-03-16 10:28:00,77.9,29.5,29.82,WNW,296,3.0,5.0,17,0.00,,,0.00,Wunderground v.1.15,2013-03-16 17:28:00,
2013-03-16 10:34:00,78.2,29.8,29.81,NW,315,2.0,5.0,17,0.00,,,0.00,Wunderground v.1.15,2013-03-16 17:34:00,
2013-03-16 10:40:00,79.1,30.5,29.82,WNW,292,3.0,3.0,17,0.00,,,0.00,Wunderground v.1.15,2013-03-16 17:40:00,
2013-03-16 10:46:00,79.4,29.3,29.82,NW,307,2.0,3.0,16,0.00,,,0.00,Wunderground v.1.15,2013-03-16 17:46:00,
2013-03-16 10:54:00,79.4,29.3,29.82,NW,307,1.0,3.0,16,0.00,,,0.00,Wunderground v.1.15,2013-03-16 17:54:00,
2013-03-16 11:03:00,79.8,29.6,29.81,WNW,288,2.0,2.0,16,0.00,,,0.00,Wunderground v.1.15,2013-03-16 18:03:00,
2013-03-16 11:08:00,80.1,29.8,29.81,WNW,288,1.0,3.0,16,0.00,,,0.00,Wunderground v.1.15,2013-03-16 18:08:00,
2013-03-16 11:14:00,81.3,30.8,29.81,WNW,288,1.0,3.0,16,0.00,,,0.00,Wunderground v.1.15,2013-03-16 18:14:00,
2013-03-16 11:20:00,81.6,29.4,29.81,WNW,288,2.0,2.0,15,0.00,,,0.00,Wunderground v.1.15,2013-03-16 18:20:00,
2013-03-16 11:26:00,80.9,28.9,29.81,WNW,288,1.0,2.0,15,0.00,,,0.00,Wunderground v.1.15,2013-03-16 18:26:00,
2013-03-16 11:32:00,82.2,29.9,29.81,NW,306,1.0,4.0,15,0.00,,,0.00,Wunderground v.1.15,2013-03-16 18:32:00,
2013-03-16 11:38:00,83.2,29.0,29.80,NW,309,2.0,4.0,14,0.00,,,0.00,Wunderground v.1.15,2013-03-16 18:38:00,
2013-03-16 11:44:00,83.8,29.5,29.80,NW,306,1.0,5.0,14,0.00,,,0.00,Wunderground v.1.15,2013-03-16 18:44:00,
2013-03-16 11:50:00,83.3,29.1,29.80,NW,306,1.0,1.0,14,0.00,,,0.00,Wunderground v.1.15,2013-03-16 18:50:00,
2013-03-16 11:56:00,82.4,28.4,29.80,West,261,2.0,3.0,14,0.00,,,0.00,Wunderground v.1.15,2013-03-16 18:56:00,
2013-03-16 12:02:00,81.9,28.0,29.79,West,261,1.0,2.0,14,0.00,,,0.00,Wunderground v.1.15,2013-03-16 19:02:00,
2013-03-16 12:08:00,82.7,28.6,29.79,West,261,1.0,2.0,14,0.00,,,0.00,Wunderground v.1.15,2013-03-16 19:08:00,
2013-03-16 12:14:00,82.9,28.8,29.79,SSW,205,3.0,4.0,14,0.00,,,0.00,Wunderground v.1.15,2013-03-16 19:14:00,
2013-03-16 12:20:00,83.0,28.9,29.79,South,172,4.0,4.0,14,0.00,,,0.00,Wunderground v.1.15,2013-03-16 19:20:00,
2013-03-16 12:26:00,83.0,27.1,29.78,SSW,202,2.0,4.0,13,0.00,,,0.00,Wunderground v.1.15,2013-03-16 19:26:00,
2013-03-16 12:32:00,83.2,29.0,29.78,SSW,204,2.0,2.0,14,0.00,,,0.00,Wunderground v.1.15,2013-03-16 19:32:00,
2013-03-16 12:38:00,84.2,28.0,29.78,West,259,1.0,6.0,13,0.00,,,0.00,Wunderground v.1.15,2013-03-16 19:38:00,
2013-03-16 12:44:00,84.6,28.3,29.78,WSW,238,3.0,5.0,13,0.00,,,0.00,Wunderground v.1.15,2013-03-16 19:44:00,
2013-03-16 12:50:00,83.9,27.8,29.78,WSW,238,2.0,2.0,13,0.00,,,0.00,Wunderground v.1.15,2013-03-16 19:50:00,
2013-03-16 12:56:00,84.3,28.1,29.77,SSW,211,2.0,5.0,13,0.00,,,0.00,Wunderground v.1.15,2013-03-16 19:56:00,
2013-03-16 13:02:00,84.9,28.6,29.77,SSW,213,2.0,3.0,13,0.00,,,0.00,Wunderground v.1.15,2013-03-16 20:02:00,
2013-03-16 13:08:00,85.9,27.4,29.77,SSW,211,2.0,4.0,12,0.00,,,0.00,Wunderground v.1.15,2013-03-16 20:08:00,
2013-03-16 13:14:00,85.7,27.2,29.77,SSW,205,2.0,4.0,12,0.00,,,0.00,Wunderground v.1.15,2013-03-16 20:14:00,
2013-03-16 13:20:00,86.1,27.5,29.77,SW,228,2.0,4.0,12,0.00,,,0.00,Wunderground v.1.15,2013-03-16 20:20:00,
2013-03-16 13:26:00,86.5,27.8,29.76,WNW,294,4.0,6.0,12,0.00,,,0.00,Wunderground v.1.15,2013-03-16 20:26:00,
2013-03-16 13:32:00,86.7,25.9,29.76,WSW,254,3.0,4.0,11,0.00,,,0.00,Wunderground v.1.15,2013-03-16 20:32:00,
2013-03-16 13:38:00,86.2,27.6,29.75,NNW,338,2.0,4.0,12,0.00,,,0.00,Wunderground v.1.15,2013-03-16 20:38:00,
2013-03-16 13:44:00,86.5,27.8,29.75,NNE,29,3.0,3.0,12,0.00,,,0.00,Wunderground v.1.15,2013-03-16 20:44:00,
2013-03-16 13:50:00,86.7,30.0,29.75,SSW,211,4.0,4.0,13,0.00,,,0.00,Wunderground v.1.15,2013-03-16 20:50:00,
2013-03-16 13:56:00,87.1,32.1,29.74,SSW,200,5.0,10.0,14,0.00,,,0.00,Wunderground v.1.15,2013-03-16 20:56:00,
2013-03-16 14:02:00,87.1,32.1,29.74,SSE,166,6.0,11.0,14,0.00,,,0.00,Wunderground v.1.15,2013-03-16 21:02:00,
2013-03-16 14:08:00,88.0,32.8,29.74,SSE,157,8.0,11.0,14,0.00,,,0.00,Wunderground v.1.15,2013-03-16 21:08:00,
2013-03-16 14:14:00,87.5,32.4,29.73,West,280,5.0,8.0,14,0.00,,,0.00,Wunderground v.1.15,2013-03-16 21:14:00,
2013-03-16 14:20:00,87.1,32.1,29.72,SE,134,3.0,4.0,14,0.00,,,0.00,Wunderground v.1.15,2013-03-16 21:20:00,
2013-03-16 14:28:00,88.0,29.0,29.72,SSW,200,9.0,20.0,12,0.00,,,0.00,Wunderground v.1.15,2013-03-16 21:28:00,
2013-03-16 14:34:00,87.9,28.9,29.71,WSW,248,9.0,11.0,12,0.00,,,0.00,Wunderground v.1.15,2013-03-16 21:34:00,
2013-03-16 14:40:00,87.4,28.5,29.71,WSW,248,3.0,3.0,12,0.00,,,0.00,Wunderground v.1.15,2013-03-16 21:40:00,
2013-03-16 14:46:00,88.3,29.2,29.70,WSW,249,1.0,3.0,12,0.00,,,0.00,Wunderground v.1.15,2013-03-16 21:46:00,
2013-03-16 14:52:00,88.3,29.2,29.70,SW,214,2.0,6.0,12,0.00,,,0.00,Wunderground v.1.15,2013-03-16 21:52:00,
2013-03-16 14:58:00,88.2,29.2,29.70,SSW,200,4.0,10.0,12,0.00,,,0.00,Wunderground v.1.15,2013-03-16 21:58:00,
2013-03-16 15:04:00,87.9,32.7,29.69,WSW,248,6.0,6.0,14,0.00,,,0.00,Wunderground v.1.15,2013-03-16 22:04:00,
2013-03-16 15:10:00,87.9,30.9,29.69,WSW,239,6.0,14.0,13,0.00,,,0.00,Wunderground v.1.15,2013-03-16 22:10:00,
2013-03-16 15:18:00,88.2,33.0,29.69,WSW,252,8.0,14.0,14,0.00,,,0.00,Wunderground v.1.15,2013-03-16 22:18:00,
2013-03-16 15:24:00,88.1,31.1,29.69,WSW,248,8.0,10.0,13,0.00,,,0.00,Wunderground v.1.15,2013-03-16 22:24:00,
2013-03-16 15:30:00,88.1,32.9,29.69,SW,221,6.0,6.0,14,0.00,,,0.00,Wunderground v.1.15,2013-03-16 22:30:00,
2013-03-16 15:36:00,88.4,31.3,29.69,WSW,250,7.0,14.0,13,0.00,,,0.00,Wunderground v.1.15,2013-03-16 22:36:00,
2013-03-16 15:42:00,88.4,29.3,29.69,West,269,9.0,9.0,12,0.00,,,0.00,Wunderground v.1.15,2013-03-16 22:42:00,
2013-03-16 15:48:00,88.5,29.4,29.69,SSW,213,7.0,10.0,12,0.00,,,0.00,Wunderground v.1.15,2013-03-16 22:48:00,
2013-03-16 15:54:00,88.5,29.4,29.68,WSW,237,8.0,9.0,12,0.00,,,0.00,Wunderground v.1.15,2013-03-16 22:54:00,
2013-03-16 16:00:00,88.3,33.1,29.68,SW,228,10.0,12.0,14,0.00,,,0.00,Wunderground v.1.15,2013-03-16 23:00:00,
2013-03-16 16:08:00,87.0,33.7,29.67,SSW,209,14.0,18.0,15,0.00,,,0.00,Wunderground v.1.15,2013-03-16 23:08:00,
2013-03-16 16:14:00,87.3,35.6,29.68,West,271,14.0,15.0,16,0.00,,,0.00,Wunderground v.1.15,2013-03-16 23:14:00,
2013-03-16 16:20:00,86.7,35.1,29.68,West,263,13.0,13.0,16,0.00,,,0.00,Wunderground v.1.15,2013-03-16 23:20:00,
2013-03-16 16:28:00,86.0,34.6,29.68,WSW,238,13.0,13.0,16,0.00,,,0.00,Wunderground v.1.15,2013-03-16 23:28:00,
2013-03-16 16:34:00,86.4,36.4,29.67,West,267,12.0,13.0,17,0.00,,,0.00,Wunderground v.1.15,2013-03-16 23:34:00,
2013-03-16 16:40:00,86.6,35.1,29.67,West,265,13.0,24.0,16,0.00,,,0.00,Wunderground v.1.15,2013-03-16 23:40:00,
2013-03-16 16:48:00,86.3,34.8,29.67,WSW,257,12.0,24.0,16,0.00,,,0.00,Wunderground v.1.15,2013-03-16 23:48:00,
2013-03-16 16:54:00,86.1,34.7,29.68,SW,225,11.0,16.0,16,0.00,,,0.00,Wunderground v.1.15,2013-03-16 23:54:00,
2013-03-16 17:00:00,85.3,35.5,29.68,WSW,238,14.0,14.0,17,0.00,,,0.00,Wunderground v.1.15,2013-03-17 00:00:00,
2013-03-16 17:06:00,85.2,35.5,29.68,West,260,13.0,17.0,17,0.00,,,0.00,Wunderground v.1.15,2013-03-17 00:06:00,
2013-03-16 17:12:00,84.7,33.5,29.68,SW,223,12.0,15.0,16,0.00,,,0.00,Wunderground v.1.15,2013-03-17 00:12:00,
2013-03-16 17:18:00,83.9,34.4,29.68,WSW,239,13.0,17.0,17,0.00,,,0.00,Wunderground v.1.15,2013-03-17 00:18:00,
2013-03-16 17:24:00,83.3,33.9,29.68,SW,235,13.0,17.0,17,0.00,,,0.00,Wunderground v.1.15,2013-03-17 00:24:00,
2013-03-16 17:30:00,82.6,34.8,29.68,West,261,13.0,13.0,18,0.00,,,0.00,Wunderground v.1.15,2013-03-17 00:30:00,
2013-03-16 17:36:00,82.3,34.5,29.68,WSW,248,11.0,13.0,18,0.00,,,0.00,Wunderground v.1.15,2013-03-17 00:36:00,
2013-03-16 17:42:00,81.9,34.2,29.68,WSW,250,11.0,12.0,18,0.00,,,0.00,Wunderground v.1.15,2013-03-17 00:42:00,
2013-03-16 17:48:00,81.4,32.4,29.68,SW,232,14.0,16.0,17,0.00,,,0.00,Wunderground v.1.15,2013-03-17 00:48:00,
2013-03-16 17:54:00,81.1,32.1,29.68,West,259,12.0,14.0,17,0.00,,,0.00,Wunderground v.1.15,2013-03-17 00:54:00,
2013-03-16 18:00:00,80.8,31.9,29.68,WSW,242,9.0,9.0,17,0.00,,,0.00,Wunderground v.1.15,2013-03-17 01:00:00,
2013-03-16 19:20:00,71.8,33.0,29.69,SW,232,16.0,20.0,24,0.00,,,0.00,Wunderground v.1.15,2013-03-17 02:20:00,
2013-03-16 19:26:00,71.3,32.6,29.69,SW,232,16.0,20.0,24,0.00,,,0.00,Wunderground v.1.15,2013-03-17 02:26:00,
2013-03-16 19:32:00,70.8,32.2,29.69,SW,219,16.0,22.0,24,0.00,,,0.00,Wunderground v.1.15,2013-03-17 02:32:00,
2013-03-16 19:38:00,70.5,33.0,29.69,SW,225,18.0,22.0,25,0.00,,,0.00,Wunderground v.1.15,2013-03-17 02:38:00,
2013-03-16 19:44:00,70.0,34.5,29.69,SW,226,18.0,18.0,27,0.00,,,0.00,Wunderground v.1.15,2013-03-17 02:44:00,
2013-03-16 19:50:00,69.4,33.9,29.69,SW,224,18.0,20.0,27,0.00,,,0.00,Wunderground v.1.15,2013-03-17 02:50:00,
2013-03-16 19:56:00,69.1,33.7,29.70,SW,229,18.0,23.0,27,0.00,,,0.00,Wunderground v.1.15,2013-03-17 02:56:00,
2013-03-16 20:02:00,69.0,33.6,29.70,SW,232,19.0,19.0,27,0.00,,,0.00,Wunderground v.1.15,2013-03-17 03:02:00,
2013-03-16 20:08:00,69.0,33.6,29.71,SW,227,18.0,21.0,27,0.00,,,0.00,Wunderground v.1.15,2013-03-17 03:08:00,
2013-03-16 20:14:00,68.7,34.3,29.71,SW,222,17.0,22.0,28,0.00,,,0.00,Wunderground v.1.15,2013-03-17 03:14:00,
2013-03-16 20:20:00,68.3,35.6,29.70,SW,219,19.0,26.0,30,0.00,,,0.00,Wunderground v.1.15,2013-03-17 03:20:00,
2013-03-16 20:26:00,67.9,35.3,29.70,SSW,213,21.0,26.0,30,0.00,,,0.00,Wunderground v.1.15,2013-03-17 03:26:00,
2013-03-16 20:32:00,67.6,35.9,29.70,SW,236,21.0,27.0,31,0.00,,,0.00,Wunderground v.1.15,2013-03-17 03:32:00,
2013-03-16 20:38:00,67.2,37.1,29.69,SW,221,22.0,29.0,33,0.00,,,0.00,Wunderground v.1.15,2013-03-17 03:38:00,
2013-03-16 20:44:00,66.8,36.0,29.69,SSW,202,25.0,34.0,32,0.00,,,0.00,Wunderground v.1.15,2013-03-17 03:44:00,
2013-03-16 20:50:00,66.7,35.9,29.70,SSW,207,25.0,25.0,32,0.00,,,0.00,Wunderground v.1.15,2013-03-17 03:50:00,
2013-03-16 20:56:00,66.7,35.9,29.71,SW,219,22.0,25.0,32,0.00,,,0.00,Wunderground v.1.15,2013-03-17 03:56:00,
2013-03-16 21:00:00,66.9,35.3,29.73,South,183,20.0,20.0,31,0.00,,,0.00,Wunderground v.1.15,2013-03-17 04:00:00,
2013-03-16 21:04:00,67.1,36.2,29.73,SW,216,18.0,20.0,32,0.00,,,0.00,Wunderground v.1.15,2013-03-17 04:04:00,
2013-03-16 21:06:00,67.1,36.2,29.73,SSW,211,18.0,20.0,32,0.00,,,0.00,Wunderground v.1.15,2013-03-17 04:06:00,
2013-03-16 21:12:00,66.9,36.8,29.72,WSW,252,16.0,18.0,33,0.00,,,0.00,Wunderground v.1.15,2013-03-17 04:12:00,
2013-03-16 21:18:00,66.8,29.8,29.72,WSW,254,10.0,18.0,25,0.00,,,0.00,Wunderground v.1.15,2013-03-17 04:18:00,
2013-03-16 21:24:00,67.5,30.4,29.70,West,262,12.0,26.0,25,0.00,,,0.00,Wunderground v.1.15,2013-03-17 04:24:00,
2013-03-16 21:30:00,68.3,29.0,29.70,West,269,20.0,27.0,23,0.00,,,0.00,Wunderground v.1.15,2013-03-17 04:30:00,
2013-03-16 21:38:00,69.0,35.4,29.71,West,267,21.0,27.0,29,0.00,,,0.00,Wunderground v.1.15,2013-03-17 04:38:00,
2013-03-16 21:44:00,68.1,36.3,29.71,West,273,20.0,26.0,31,0.00,,,0.00,Wunderground v.1.15,2013-03-17 04:44:00,
2013-03-16 21:50:00,67.2,35.5,29.71,WSW,252,20.0,23.0,31,0.00,,,0.00,Wunderground v.1.15,2013-03-17 04:50:00,
2013-03-16 21:56:00,66.9,32.7,29.71,West,269,19.0,23.0,28,0.00,,,0.00,Wunderground v.1.15,2013-03-17 04:56:00,
2013-03-16 22:02:00,67.1,32.9,29.72,West,281,19.0,30.0,28,0.00,,,0.00,Wunderground v.1.15,2013-03-17 05:02:00,
2013-03-16 22:08:00,67.5,33.2,29.72,WNW,288,20.0,30.0,28,0.00,,,0.00,Wunderground v.1.15,2013-03-17 05:08:00,
2013-03-16 22:14:00,67.6,32.4,29.71,WSW,253,21.0,21.0,27,0.00,,,0.00,Wunderground v.1.15,2013-03-17 05:14:00,
2013-03-16 22:20:00,67.8,30.7,29.71,West,265,19.0,20.0,25,0.00,,,0.00,Wunderground v.1.15,2013-03-17 05:20:00,
2013-03-16 22:28:00,68.4,32.1,29.72,West,270,21.0,21.0,26,0.00,,,0.00,Wunderground v.1.15,2013-03-17 05:28:00,
2013-03-16 22:34:00,68.0,32.7,29.73,NW,315,18.0,21.0,27,0.00,,,0.00,Wunderground v.1.15,2013-03-17 05:34:00,
2013-03-16 22:40:00,67.7,31.6,29.74,WNW,284,14.0,14.0,26,0.00,,,0.00,Wunderground v.1.15,2013-03-17 05:40:00,
2013-03-16 22:48:00,67.5,32.3,29.74,NW,309,13.0,16.0,27,0.00,,,0.00,Wunderground v.1.15,2013-03-17 05:48:00,
2013-03-16 22:54:00,67.3,31.2,29.73,NNW,331,14.0,15.0,26,0.00,,,0.00,Wunderground v.1.15,2013-03-17 05:54:00,
2013-03-16 23:00:00,67.4,29.3,29.72,NW,309,14.0,14.0,24,0.00,,,0.00,Wunderground v.1.15,2013-03-17 06:00:00,
2013-03-16 23:06:00,67.8,29.7,29.72,NNW,343,13.0,16.0,24,0.00,,,0.00,Wunderground v.1.15,2013-03-17 06:06:00,
2013-03-16 23:12:00,67.9,29.7,29.73,NNW,328,13.0,13.0,24,0.00,,,0.00,Wunderground v.1.15,2013-03-17 06:12:00,
2013-03-16 23:18:00,67.9,29.7,29.73,NNW,344,11.0,13.0,24,0.00,,,0.00,Wunderground v.1.15,2013-03-17 06:18:00,
2013-03-16 23:24:00,67.7,29.6,29.73,North,355,8.0,11.0,24,0.00,,,0.00,Wunderground v.1.15,2013-03-17 06:24:00,
2013-03-16 23:30:00,67.5,28.4,29.74,NNW,327,8.0,8.0,23,0.00,,,0.00,Wunderground v.1.15,2013-03-17 06:30:00,
2013-03-16 23:38:00,67.7,29.6,29.74,NNW,344,11.0,14.0,24,0.00,,,0.00,Wunderground v.1.15,2013-03-17 06:38:00,
2013-03-16 23:44:00,68.0,30.8,29.73,NW,308,12.0,12.0,25,0.00,,,0.00,Wunderground v.1.15,2013-03-17 06:44:00,
2013-03-16 23:50:00,68.0,28.8,29.72,WNW,288,12.0,13.0,23,0.00,,,0.00,Wunderground v.1.15,2013-03-17 06:50:00,
2013-03-16 23:56:00,68.4,28.0,29.72,WNW,291,15.0,19.0,22,0.00,,,0.00,Wunderground v.1.15,2013-03-17 06:56:00,